EW3692 Weather Reports


Display with metric or nautical units.
time (UTC)temp
F
wind
direction
speed
MPH
gust
MPH
rain 1hr
in
rain 24hr
in
rain mn
in
humidity
%
barometer
mb
20260906090055 64 105 0.0 0.0 0.00 0.00 0.00 92 1012.7
20260906084555 64 105 0.0 0.0 0.00 0.00 0.00 92 1012.6
20260906083049 64 105 0.0 0.0 0.00 0.00 0.00 92 1012.7
20260906081548 65 105 0.0 0.0 0.00 0.00 0.00 92 1012.6
20260906080149 65 105 0.0 0.0 0.00 0.00 0.00 92 1012.7
20260906040012 67 105 0.0 0.0 0.00 0.00 0.00 93 1013.7
20260906034514 67 105 0.0 0.0 0.00 0.00 0.00 93 1013.8
20260906033016 67 105 0.0 0.0 0.00 0.00 0.00 93 1013.9
20260906031510 67 105 0.0 0.0 0.00 0.00 0.00 93 1013.8
20260906030009 68 105 0.0 0.0 0.00 0.00 0.00 93 1013.7
20260906024509 68 105 0.0 0.0 0.00 0.00 0.00 93 1013.7
20260906023009 68 105 0.0 0.0 0.00 0.00 0.00 93 1013.4
20260906021512 68 105 0.0 0.0 0.00 0.00 0.00 93 1013.5
20260906020007 68 105 0.0 0.0 0.00 0.00 0.00 93 1013.5
20260906014517 68 105 0.0 0.0 0.00 0.00 0.00 93 1013.1
20260906013006 68 105 0.0 0.0 0.00 0.00 0.00 92 1013.1
20260906011506 69 105 0.0 0.0 0.00 0.00 0.00 92 1012.9
20260906010006 69 105 0.0 0.0 0.00 0.00 0.00 92 1012.7
20260906004505 70 105 0.0 0.0 0.00 0.00 0.00 92 1012.6
20260906003005 71 105 0.0 0.0 0.00 0.00 0.00 92 1012.4
20260906001504 71 105 0.0 0.0 0.00 0.00 0.00 92 1012.5
20260906000004 73 105 0.0 0.0 0.00 0.00 0.00 92 1012.3
20260905234503 73 105 0.0 0.0 0.00 0.00 0.00 92 1012.1
20260905233003 73 105 0.0 0.0 0.00 0.00 0.00 91 1012.1
20260905231502 74 105 0.0 0.0 0.00 0.00 0.00 91 1012.2
20260905230001 74 105 0.0 0.0 0.00 0.00 0.00 90 1012.1
20260905224504 74 105 0.0 1.0 0.00 0.00 0.00 91 1012.2
20260905223001 75 105 0.0 0.0 0.00 0.00 0.00 90 1012.1
20260905221559 75 105 0.0 0.0 0.00 0.00 0.00 90 1012.0
20260905214600 77 105 0.0 0.0 0.00 0.00 0.00 88 1012.2
20260905213058 77 105 0.0 0.0 0.00 0.00 0.00 89 1012.1
20260905211555 76 105 0.0 0.0 0.00 0.00 0.00 89 1012.5
20260905210055 75 105 0.0 0.0 0.00 0.00 0.00 89 1012.6
20260905204555 75 105 0.0 0.0 0.00 0.00 0.00 90 1012.7
20260905203055 76 105 0.0 0.0 0.00 0.00 0.00 90 1012.8
20260905201606 76 105 0.0 1.0 0.00 0.00 0.00 90 1013.1
20260905200053 76 105 0.0 0.0 0.00 0.00 0.00 89 1012.7
20260905194553 76 105 0.0 0.0 0.00 0.00 0.00 88 1012.7
20260905193052 77 105 0.0 0.0 0.00 0.00 0.00 86 1012.4
20260905191553 79 105 0.0 0.0 0.00 0.00 0.00 84 1012.5
20260905190104 81 105 0.0 0.0 0.00 0.00 0.00 82 1012.9
20260905184605 82 104 0.0 3.0 0.00 0.00 0.00 87 1012.5
20260905183049 81 102 0.0 0.0 0.00 0.00 0.00 86 1012.8
20260905181547 81 102 0.0 1.0 0.00 0.00 0.00 86 1012.6
20260905180044 79 102 0.0 0.0 0.00 0.00 0.00 90 1013.3
20260905174553 80 102 0.0 1.0 0.00 0.00 0.00 84 1013.6
20260905173042 83 102 0.0 0.0 0.00 0.00 0.00 76 1013.6
20260905171541 84 102 0.0 1.0 0.00 0.00 0.00 76 1013.7
20260905170041 85 102 0.0 1.0 0.00 0.00 0.00 74 1013.6
20260905164539 85 142 0.0 3.0 0.00 0.00 0.00 71 1013.8
20260905163036 84 144 0.0 1.0 0.00 0.00 0.00 77 1014.3
20260905161534 84 144 0.0 1.0 0.00 0.00 0.00 74 1014.3
20260905160035 84 157 0.0 2.0 0.00 0.00 0.00 77 1014.3
20260905154531 83 186 0.0 1.0 0.00 0.00 0.00 77 1014.3
20260905153049 83 186 0.0 0.0 0.00 0.00 0.00 79 1014.6
20260905151527 82 186 0.0 2.0 0.00 0.00 0.00 82 1014.5
20260905150022 80 210 0.0 1.0 0.00 0.00 0.00 89 1014.9
20260905144519 77 210 0.0 0.0 0.00 0.00 0.00 96 1015.1
20260905143021 75 210 0.0 1.0 0.00 0.00 0.00 96 1015.1
20260905141510 72 210 0.0 0.0 0.00 0.00 0.00 93 1015.3
20260905140006 70 210 0.0 0.0 0.00 0.00 0.00 93 1015.5
20260905134502 69 217 0.0 0.0 0.00 0.00 0.00 92 1015.7
20260905133001 68 217 0.0 0.0 0.00 0.00 0.00 92 1015.8
20260905131626 67 217 0.0 0.0 0.00 0.00 0.00 92 1015.8
20260905130108 67 217 0.0 0.0 0.00 0.00 0.00 92 1015.9
20260905124557 66 217 0.0 0.0 0.00 0.00 0.00 92 1015.7
20260905123107 66 217 0.0 2.0 0.00 0.00 0.00 92 1015.6
20260905121555 66 217 0.0 0.0 0.00 0.00 0.00 92 1015.6
20260905120054 66 217 0.0 0.0 0.00 0.00 0.00 92 1015.6
20260905114554 66 217 0.0 2.0 0.00 0.00 0.00 92 1015.3
20260905113101 65 217 0.0 0.0 0.00 0.00 0.00 92 1015.0
20260905111558 66 217 0.0 0.0 0.00 0.00 0.00 92 1014.8
20260905110052 66 217 0.0 0.0 0.00 0.00 0.00 92 1014.7
20260905104552 66 217 0.0 2.0 0.00 0.00 0.00 92 1014.5
20260905103051 66 217 0.0 0.0 0.00 0.00 0.00 93 1014.4
20260905101606 66 217 0.0 2.0 0.00 0.00 0.00 93 1014.5
20260905100049 66 217 0.0 0.0 0.00 0.00 0.00 92 1014.4
20260905094550 67 217 0.0 2.0 0.00 0.00 0.00 92 1014.3
20260905093048 67 217 0.0 3.0 0.00 0.00 0.00 93 1014.4
20260905091548 66 217 0.0 3.0 0.00 0.00 0.00 93 1014.2